N5VKM Weather Reports


Display with metric or nautical units.
time (UTC)temp
F
wind
direction
speed
MPH
gust
MPH
rain 1hr
in
rain 24hr
in
rain mn
in
humidity
%
barometer
mb
20260831175058 98 331 0.0 0.0 0.00 0.00 0.00 40 1017.2
20260831174545 98 333 0.0 0.0 0.00 0.00 0.00 40 1017.3
20260831174037 98 331 0.0 0.0 0.00 0.00 0.00 41 1017.3
20260831173546 98 331 0.0 0.0 0.00 0.00 0.00 40 1017.4
20260831173035 98 331 0.0 0.0 0.00 0.00 0.00 41 1017.5
20260831172609 98 333 0.0 0.0 0.00 0.00 0.00 41 1017.5
20260831172054 98 333 0.0 0.0 0.00 0.00 0.00 43 1017.6
20260831171541 97 332 0.0 0.0 0.00 0.00 0.00 43 1017.6
20260831171034 97 331 0.0 0.0 0.00 0.00 0.00 43 1017.6
20260831170545 97 331 0.0 0.0 0.00 0.00 0.00 42 1017.6
20260831170033 96 331 0.0 0.0 0.00 0.00 0.00 43 1017.7
20260831165540 96 333 0.0 0.0 0.00 0.00 0.00 43 1017.7
20260831165030 96 332 0.0 0.0 0.00 0.00 0.00 44 1017.7
20260831164541 96 333 0.0 0.0 0.00 0.00 0.00 42 1017.7
20260831164052 96 333 0.0 0.0 0.00 0.00 0.00 43 1017.7
20260831163542 95 333 0.0 0.0 0.00 0.00 0.00 43 1017.7
20260831163030 95 333 0.0 0.0 0.00 0.00 0.00 42 1017.8
20260831162558 95 333 0.0 0.0 0.00 0.00 0.00 43 1017.9
20260831162047 95 333 0.0 0.0 0.00 0.00 0.00 43 1017.9
20260831161534 95 332 0.0 0.0 0.00 0.00 0.00 44 1017.9
20260831161042 95 333 0.0 0.0 0.00 0.00 0.00 43 1017.9
20260831160530 94 334 0.0 0.0 0.00 0.00 0.00 44 1017.9
20260831160039 94 333 0.0 0.0 0.00 0.00 0.00 45 1017.9
20260831155527 93 333 0.0 0.0 0.00 0.00 0.00 45 1017.9
20260831155041 93 332 0.0 0.0 0.00 0.00 0.00 46 1017.9
20260831154553 92 333 0.0 0.0 0.00 0.00 0.00 47 1017.8
20260831154040 92 334 0.0 0.0 0.00 0.00 0.00 49 1017.8
20260831153533 92 334 0.0 0.0 0.00 0.00 0.00 50 1017.8
20260831153041 92 333 0.0 0.0 0.00 0.00 0.00 51 1017.7
20260831152533 91 333 0.0 0.0 0.00 0.00 0.00 52 1017.7
20260831152044 91 333 0.0 0.0 0.00 0.00 0.00 54 1017.7
20260831151531 90 334 0.0 0.0 0.00 0.00 0.00 55 1017.7
20260831151105 90 333 0.0 0.0 0.00 0.00 0.00 56 1017.7
20260831150535 89 333 0.0 0.0 0.00 0.00 0.00 56 1017.7
20260831150047 89 334 0.0 0.0 0.00 0.00 0.00 58 1017.7
20260831145537 89 333 0.0 0.0 0.00 0.00 0.00 58 1017.8
20260831145034 88 333 0.0 0.0 0.00 0.00 0.00 59 1017.7
20260831144543 88 333 0.0 0.0 0.00 0.00 0.00 58 1017.6
20260831144057 88 333 0.0 0.0 0.00 0.00 0.00 60 1017.7
20260831143542 88 333 0.0 0.0 0.00 0.00 0.00 60 1017.7
20260831143035 88 334 0.0 0.0 0.00 0.00 0.00 60 1017.6
20260831142527 87 333 0.0 0.0 0.00 0.00 0.00 63 1017.7
20260831142041 86 333 0.0 0.0 0.00 0.00 0.00 63 1017.7
20260831141535 86 334 0.0 0.0 0.00 0.00 0.00 65 1017.8
20260831141047 86 334 0.0 0.0 0.00 0.00 0.00 66 1017.7
20260831140533 86 333 0.0 0.0 0.00 0.00 0.00 67 1017.7
20260831140026 85 333 0.0 0.0 0.00 0.00 0.00 68 1017.7
20260831135600 84 333 0.0 0.0 0.00 0.00 0.00 68 1017.6
20260831135027 84 333 0.0 0.0 0.00 0.00 0.00 69 1017.6
20260831134538 84 334 0.0 0.0 0.00 0.00 0.00 70 1017.6
20260831134046 83 335 0.0 0.0 0.00 0.00 0.00 71 1017.5
20260831133537 83 333 0.0 0.0 0.00 0.00 0.00 71 1017.4
20260831133045 82 333 0.0 0.0 0.00 0.00 0.00 72 1017.3
20260831132555 82 333 0.0 0.0 0.00 0.00 0.00 72 1017.3
20260831132045 82 333 0.0 0.0 0.00 0.00 0.00 73 1017.2
20260831131532 81 334 0.0 0.0 0.00 0.00 0.00 73 1017.2
20260831131046 81 335 0.0 0.0 0.00 0.00 0.00 74 1017.2
20260831130533 80 333 0.0 0.0 0.00 0.00 0.00 74 1017.1
20260831130040 80 334 0.0 0.0 0.00 0.00 0.00 74 1016.9
20260831125531 80 333 0.0 0.0 0.00 0.00 0.00 75 1016.9
20260831125041 79 333 0.0 0.0 0.00 0.00 0.00 75 1016.8
20260831124548 79 333 0.0 0.0 0.00 0.00 0.00 76 1016.7
20260831124038 78 333 0.0 0.0 0.00 0.00 0.00 76 1016.6
20260831123545 78 333 0.0 0.0 0.00 0.00 0.00 76 1016.5
20260831123039 78 333 0.0 0.0 0.00 0.00 0.00 76 1016.5
20260831122547 77 333 0.0 0.0 0.00 0.00 0.00 76 1016.4
20260831122055 77 333 0.0 0.0 0.00 0.00 0.00 76 1016.3
20260831121528 77 333 0.0 0.0 0.00 0.00 0.00 76 1016.2
20260831121039 77 333 0.0 0.0 0.00 0.00 0.00 76 1016.2
20260831120546 77 333 0.0 0.0 0.00 0.00 0.00 76 1016.1
20260831120057 77 333 0.0 0.0 0.00 0.00 0.00 75 1016.0
20260831115543 77 333 0.0 0.0 0.00 0.00 0.00 75 1016.0
20260831115031 77 333 0.0 0.0 0.00 0.00 0.00 75 1015.9
20260831114538 78 333 0.0 0.0 0.00 0.00 0.00 75 1015.9
20260831114045 78 333 0.0 0.0 0.00 0.00 0.00 74 1015.8
20260831113538 78 333 0.0 0.0 0.00 0.00 0.00 73 1015.8
20260831113046 78 333 0.0 0.0 0.00 0.00 0.00 73 1015.7
20260831112535 78 333 0.0 0.0 0.00 0.00 0.00 73 1015.7
20260831112106 78 333 0.0 0.0 0.00 0.00 0.00 73 1015.6
20260831111532 78 333 0.0 0.0 0.00 0.00 0.00 73 1015.6
20260831111105 78 333 0.0 0.0 0.00 0.00 0.00 73 1015.5
20260831110537 78 333 0.0 0.0 0.00 0.00 0.00 73 1015.6
20260831110029 78 333 0.0 0.0 0.00 0.00 0.00 74 1015.5
20260831105556 78 333 0.0 0.0 0.00 0.00 0.00 74 1015.5
20260831105042 78 333 0.0 0.0 0.00 0.00 0.00 73 1015.5
20260831104534 78 333 0.0 0.0 0.00 0.00 0.00 73 1015.4
20260831104048 78 333 0.0 0.0 0.00 0.00 0.00 73 1015.5
20260831103538 78 333 0.0 0.0 0.00 0.00 0.00 72 1015.5
20260831103046 78 333 0.0 0.0 0.00 0.00 0.00 72 1015.5
20260831102536 78 333 0.0 0.0 0.00 0.00 0.00 72 1015.5
20260831102046 78 333 0.0 0.0 0.00 0.00 0.00 72 1015.4
20260831101534 78 333 0.0 0.0 0.00 0.00 0.00 72 1015.4
20260831101106 78 333 0.0 0.0 0.00 0.00 0.00 72 1015.4
20260831100538 78 333 0.0 0.0 0.00 0.00 0.00 72 1015.3
20260831100028 78 333 0.0 0.0 0.00 0.00 0.00 72 1015.3
20260831095558 78 333 0.0 0.0 0.00 0.00 0.00 71 1015.4
20260831095031 78 333 0.0 0.0 0.00 0.00 0.00 71 1015.4
20260831094540 78 333 0.0 0.0 0.00 0.00 0.00 71 1015.3
20260831094028 79 333 0.0 0.0 0.00 0.00 0.00 70 1015.3
20260831093541 79 333 0.0 0.0 0.00 0.00 0.00 70 1015.2
20260831093027 79 333 0.0 0.0 0.00 0.00 0.00 69 1015.2
20260831092537 79 333 0.0 0.0 0.00 0.00 0.00 68 1015.2
20260831092046 80 333 0.0 0.0 0.00 0.00 0.00 68 1015.2
20260831091532 80 333 0.0 0.0 0.00 0.00 0.00 68 1015.1
20260831091030 80 333 0.0 0.0 0.00 0.00 0.00 68 1015.1
20260831090537 80 333 0.0 0.0 0.00 0.00 0.00 67 1015.0
20260831090047 80 333 0.0 0.0 0.00 0.00 0.00 66 1015.0
20260831085538 80 333 0.0 0.0 0.00 0.00 0.00 67 1015.0
20260831085031 80 333 0.0 0.0 0.00 0.00 0.00 67 1015.0
20260831084545 80 333 0.0 0.0 0.00 0.00 0.00 67 1014.9
20260831084038 80 333 0.0 0.0 0.00 0.00 0.00 67 1014.9
20260831083531 80 333 0.0 0.0 0.00 0.00 0.00 67 1014.9
20260831083042 80 333 0.0 0.0 0.00 0.00 0.00 67 1014.9
20260831082535 80 333 0.0 0.0 0.00 0.00 0.00 67 1014.8
20260831082036 81 333 0.0 0.0 0.00 0.00 0.00 66 1014.8
20260831081527 81 333 0.0 0.0 0.00 0.00 0.00 65 1014.9
20260831081041 81 333 0.0 0.0 0.00 0.00 0.00 64 1014.9
20260831080549 82 333 0.0 0.0 0.00 0.00 0.00 64 1014.8
20260831080040 82 333 0.0 0.0 0.00 0.00 0.00 62 1014.7
20260831075528 82 333 0.0 0.0 0.00 0.00 0.00 62 1014.6
20260831075039 82 333 0.0 0.0 0.00 0.00 0.00 62 1014.6
20260831074550 82 333 0.0 0.0 0.00 0.00 0.00 61 1014.5
20260831074038 82 333 0.0 0.0 0.00 0.00 0.00 61 1014.5
20260831073608 83 333 0.0 0.0 0.00 0.00 0.00 61 1014.5
20260831073053 83 333 0.0 0.0 0.00 0.00 0.00 60 1014.5
20260831072539 83 333 0.0 0.0 0.00 0.00 0.00 60 1014.5
20260831072046 83 333 0.0 0.0 0.00 0.00 0.00 60 1014.5
20260831071537 83 333 0.0 0.0 0.00 0.00 0.00 60 1014.5
20260831071046 83 333 0.0 0.0 0.00 0.00 0.00 60 1014.6
20260831070533 83 333 0.0 0.0 0.00 0.00 0.00 60 1014.6
20260831070043 83 333 0.0 0.0 0.00 0.00 0.00 60 1014.6
20260831065532 83 333 0.0 0.0 0.00 0.00 0.00 60 1014.7
20260831065043 83 333 0.0 0.0 0.00 0.00 0.00 60 1014.6
20260831064533 83 333 0.0 0.0 0.00 0.00 0.00 59 1014.6
20260831064039 84 333 0.0 0.0 0.00 0.00 0.00 59 1014.7
20260831063547 84 333 0.0 0.0 0.00 0.00 0.00 59 1014.7
20260831063033 84 333 0.0 0.0 0.00 0.00 0.00 59 1014.7
20260831062547 84 333 0.0 0.0 0.00 0.00 0.00 59 1014.7
20260831062034 84 333 0.0 0.0 0.00 0.00 0.00 59 1014.8
20260831061540 84 333 0.0 0.0 0.00 0.00 0.00 59 1014.8
20260831061030 84 333 0.0 0.0 0.00 0.00 0.00 59 1014.7
20260831060601 84 333 0.0 0.0 0.00 0.00 0.00 59 1014.7
20260831060046 84 333 0.0 0.0 0.00 0.00 0.00 59 1014.7
20260831055556 84 333 0.0 0.0 0.00 0.00 0.00 59 1014.8
20260831055045 84 333 0.0 0.0 0.00 0.00 0.00 58 1014.7
20260831054537 84 333 0.0 0.0 0.00 0.00 0.00 58 1014.8
20260831054028 84 333 0.0 0.0 0.00 0.00 0.00 58 1014.8
20260831053539 84 333 0.0 0.0 0.00 0.00 0.00 58 1014.8
20260831053050 84 333 0.0 0.0 0.00 0.00 0.00 57 1014.7
20260831052033 85 333 0.0 0.0 0.00 0.00 0.00 56 1014.6
20260831051541 85 333 0.0 0.0 0.00 0.00 0.00 56 1014.6
20260831051032 85 333 0.0 0.0 0.00 0.00 0.00 56 1014.6
20260831050541 85 333 0.0 0.0 0.00 0.00 0.00 56 1014.6
20260831050031 85 333 0.0 0.0 0.00 0.00 0.00 55 1014.5
20260831045605 85 333 0.0 0.0 0.00 0.00 0.00 55 1014.5
20260831045032 86 333 0.0 0.0 0.00 0.00 0.00 55 1014.5
20260831044542 86 333 0.0 0.0 0.00 0.00 0.00 54 1014.5
20260831044031 86 333 0.0 0.0 0.00 0.00 0.00 54 1014.5
20260831043540 86 333 0.0 0.0 0.00 0.00 0.00 54 1014.5
20260831043048 86 333 0.0 0.0 0.00 0.00 0.00 53 1014.6
20260831042537 86 333 0.0 0.0 0.00 0.00 0.00 53 1014.6
20260831042027 86 333 0.0 0.0 0.00 0.00 0.00 53 1014.6
20260831041617 87 333 0.0 0.0 0.00 0.00 0.00 52 1014.5
20260831041028 87 333 0.0 0.0 0.00 0.00 0.00 52 1014.5
20260831040540 87 333 0.0 0.0 0.00 0.00 0.00 52 1014.5
20260831040034 87 333 0.0 0.0 0.00 0.00 0.00 51 1014.5
20260831035548 87 333 0.0 0.0 0.00 0.00 0.00 51 1014.5
20260831035034 87 333 0.0 0.0 0.00 0.00 0.00 51 1014.5
20260831034548 87 333 0.0 0.0 0.00 0.00 0.00 51 1014.4
20260831034054 87 333 0.0 0.0 0.00 0.00 0.00 51 1014.4
20260831033604 87 333 0.0 0.0 0.00 0.00 0.00 50 1014.4
20260831033032 87 333 0.0 0.0 0.00 0.00 0.00 50 1014.3
20260831032600 87 333 0.0 0.0 0.00 0.00 0.00 50 1014.3
20260831032053 87 333 0.0 0.0 0.00 0.00 0.00 50 1014.3
20260831031539 87 333 0.0 0.0 0.00 0.00 0.00 50 1014.3
20260831031050 88 333 0.0 0.0 0.00 0.00 0.00 50 1014.3
20260831030537 88 333 0.0 0.0 0.00 0.00 0.00 50 1014.2
20260831030048 88 333 0.0 0.0 0.00 0.00 0.00 50 1014.2
20260831025536 88 333 0.0 0.0 0.00 0.00 0.00 49 1014.2
20260831025044 88 333 0.0 0.0 0.00 0.00 0.00 49 1014.2
20260831024535 89 333 0.0 0.0 0.00 0.00 0.00 49 1014.1
20260831024044 89 333 0.0 0.0 0.00 0.00 0.00 48 1014.0
20260831023550 90 333 0.0 0.0 0.00 0.00 0.00 47 1014.0
20260831023047 90 333 0.0 0.0 0.00 0.00 0.00 45 1013.9
20260831022537 90 333 0.0 0.0 0.00 0.00 0.00 45 1013.8
20260831022034 90 333 0.0 0.0 0.00 0.00 0.00 45 1013.8
20260831021540 90 333 0.0 0.0 0.00 0.00 0.00 44 1013.7
20260831021049 90 333 0.0 0.0 0.00 0.00 0.00 44 1013.7
20260831020540 90 333 0.0 0.0 0.00 0.00 0.00 44 1013.6
20260831020029 91 333 0.0 0.0 0.00 0.00 0.00 44 1013.5
20260831015600 91 333 0.0 0.0 0.00 0.00 0.00 44 1013.4
20260831015047 91 333 0.0 0.0 0.00 0.00 0.00 44 1013.3
20260831014601 91 333 0.0 0.0 0.00 0.00 0.00 44 1013.3
20260831014048 92 333 0.0 0.0 0.00 0.00 0.00 43 1013.2
20260831013538 92 333 0.0 0.0 0.00 0.00 0.00 43 1013.2
20260831013031 92 333 0.0 0.0 0.00 0.00 0.00 42 1013.2
20260831012600 93 333 0.0 0.0 0.00 0.00 0.00 42 1013.2
20260831012050 93 333 0.0 0.0 0.00 0.00 0.00 42 1013.1
20260831011543 93 333 0.0 0.0 0.00 0.00 0.00 41 1013.2
20260831011031 94 333 0.0 0.0 0.00 0.00 0.00 41 1013.1
20260831010542 94 333 0.0 0.0 0.00 0.00 0.00 40 1013.0
20260831010050 94 333 0.0 0.0 0.00 0.00 0.00 40 1013.0
20260831005537 94 333 0.0 0.0 0.00 0.00 0.00 40 1013.0
20260831005111 95 333 0.0 0.0 0.00 0.00 0.00 39 1013.0
20260831004541 95 333 0.0 0.0 0.00 0.00 0.00 39 1012.9
20260831004033 95 333 0.0 0.0 0.00 0.00 0.00 39 1012.9
20260831003540 95 333 0.0 0.0 0.00 0.00 0.00 38 1012.9
20260831003033 96 333 0.0 0.0 0.00 0.00 0.00 38 1012.9
20260831002545 96 333 0.0 0.0 0.00 0.00 0.00 37 1013.0
20260831002031 96 333 0.0 0.0 0.00 0.00 0.00 37 1013.0
20260831001531 97 332 0.0 0.0 0.00 0.00 0.00 37 1013.0
20260831001038 97 332 0.0 0.0 0.00 0.00 0.00 36 1013.0
20260831000538 97 332 0.0 0.0 0.00 0.00 0.00 36 1013.0
20260831000032 97 333 0.0 0.0 0.00 0.00 0.00 36 1013.0
20260830235549 98 333 0.0 0.0 0.00 0.00 0.00 36 1013.1
20260830235036 98 333 0.0 0.0 0.00 0.00 0.00 36 1013.1
20260830234610 98 332 0.0 0.0 0.00 0.00 0.00 35 1013.1
20260830234103 98 331 0.0 0.0 0.00 0.00 0.00 35 1013.1
20260830233536 98 333 0.0 0.0 0.00 0.00 0.00 35 1013.1
20260830233048 98 333 0.0 0.0 0.00 0.00 0.00 34 1013.2
20260830232555 98 331 0.0 0.0 0.00 0.00 0.00 34 1013.2
20260830232027 98 333 0.0 0.0 0.00 0.00 0.00 34 1013.2
20260830231540 99 333 0.0 0.0 0.00 0.00 0.00 34 1013.2
20260830231034 99 333 0.0 0.0 0.00 0.00 0.00 34 1013.2
20260830230527 99 332 0.0 0.0 0.00 0.00 0.00 34 1013.2
20260830225531 99 331 0.0 0.0 0.00 0.00 0.00 33 1013.2
20260830225039 99 333 0.0 0.0 0.00 0.00 0.00 32 1013.2
20260830224611 99 331 0.0 0.0 0.00 0.00 0.00 32 1013.2
20260830224037 99 332 0.0 0.0 0.00 0.00 0.00 33 1013.3
20260830223531 99 331 0.0 0.0 0.00 0.00 0.00 33 1013.3
20260830223039 100 332 0.0 0.0 0.00 0.00 0.00 33 1013.4
20260830222527 100 332 0.0 0.0 0.00 0.00 0.00 33 1013.4
20260830222038 100 331 0.0 0.0 0.00 0.00 0.00 33 1013.4
20260830221531 100 331 0.0 0.0 0.00 0.00 0.00 33 1013.4
20260830221042 101 330 0.0 0.0 0.00 0.00 0.00 32 1013.4
20260830220550 101 332 0.0 0.0 0.00 0.00 0.00 31 1013.4
20260830220036 101 331 0.0 0.0 0.00 0.00 0.00 31 1013.3
20260830215547 101 333 0.0 0.0 0.00 0.00 0.00 30 1013.4
20260830215040 101 330 0.0 0.0 0.00 0.00 0.00 31 1013.4
20260830214548 101 333 0.0 0.0 0.00 0.00 0.00 31 1013.4
20260830214036 101 331 0.0 0.0 0.00 0.00 0.00 32 1013.5
20260830213547 101 332 0.0 0.0 0.00 0.00 0.00 32 1013.7
20260830213036 100 332 0.0 0.0 0.00 0.00 0.00 33 1013.7
20260830212528 100 331 0.0 0.0 0.00 0.00 0.00 33 1013.8
20260830212039 101 333 0.0 0.0 0.00 0.00 0.00 33 1013.8
20260830211527 100 332 0.0 0.0 0.00 0.00 0.00 34 1013.8
20260830211041 100 333 0.0 0.0 0.00 0.00 0.00 34 1013.9
20260830210531 100 332 0.0 0.0 0.00 0.00 0.00 34 1013.8
20260830210030 101 331 0.0 0.0 0.00 0.00 0.00 34 1013.9
20260830205541 101 331 0.0 0.0 0.00 0.00 0.00 35 1013.9
20260830205031 100 333 0.0 0.0 0.00 0.00 0.00 36 1014.1
20260830204545 100 331 0.0 0.0 0.00 0.00 0.00 36 1014.0
20260830204032 100 331 0.0 0.0 0.00 0.00 0.00 36 1014.0
20260830203559 101 333 0.0 0.0 0.00 0.00 0.00 36 1014.2
20260830203045 101 333 0.0 0.0 0.00 0.00 0.00 35 1014.2
20260830202535 101 332 0.0 0.0 0.00 0.00 0.00 36 1014.3
20260830202032 101 332 0.0 0.0 0.00 0.00 0.00 35 1014.3
20260830201603 100 333 0.0 0.0 0.00 0.00 0.00 36 1014.4
20260830201049 100 333 0.0 0.0 0.00 0.00 0.00 37 1014.5
20260830200540 99 328 0.0 0.0 0.00 0.00 0.00 38 1014.7
20260830200035 99 331 0.0 0.0 0.00 0.00 0.00 38 1014.8
20260830195543 98 331 0.0 0.0 0.00 0.00 0.00 39 1014.8
20260830195108 99 332 0.0 0.0 0.00 0.00 0.00 38 1014.9
20260830194601 99 331 0.0 0.0 0.00 0.00 0.00 38 1014.7
20260830194059 99 331 0.0 0.0 0.00 0.00 0.00 38 1014.9
20260830193558 100 333 0.0 0.0 0.00 0.00 0.00 38 1015.0
20260830193047 99 331 0.0 0.0 0.00 0.00 0.00 39 1015.1
20260830192554 98 332 0.0 0.0 0.00 0.00 0.00 40 1015.1
20260830192052 98 333 0.0 0.0 0.00 0.00 0.00 41 1015.2
20260830191555 98 333 0.0 0.0 0.00 0.00 0.00 41 1015.2
20260830191051 98 334 0.0 0.0 0.00 0.00 0.00 41 1015.3
20260830190529 98 331 0.0 0.0 0.00 0.00 0.00 42 1015.4
20260830190038 98 331 0.0 0.0 0.00 0.00 0.00 41 1015.4
20260830185545 98 331 0.0 0.0 0.00 0.00 0.00 41 1015.5
20260830185031 99 331 0.0 0.0 0.00 0.00 0.00 40 1015.5
20260830184542 99 333 0.0 0.0 0.00 0.00 0.00 41 1015.6
20260830184029 98 331 0.0 0.0 0.00 0.00 0.00 42 1015.5
20260830183540 98 332 0.0 0.0 0.00 0.00 0.00 42 1015.7
20260830183048 98 332 0.0 0.0 0.00 0.00 0.00 41 1015.7
20260830182539 98 333 0.0 0.0 0.00 0.00 0.00 43 1015.8
20260830182026 98 331 0.0 0.0 0.00 0.00 0.00 42 1015.9
20260830181540 98 329 0.0 0.0 0.00 0.00 0.00 42 1015.9
20260830181029 98 331 0.0 0.0 0.00 0.00 0.00 42 1016.0
20260830180540 98 332 0.0 0.0 0.00 0.00 0.00 42 1016.0
20260830180033 98 333 0.0 0.0 0.00 0.00 0.00 43 1016.1
20260830175607 98 331 0.0 0.0 0.00 0.00 0.00 42 1016.2